This is the latest recevied weather packets stored in our database for station/object IZ3LCH-13. If no packets are shown the sender has not sent any weather packets the latest 10 day(s).
| Time | Temp. | Humidity | Pressure | Rain* | Wind** | Luminosity | Snow |
|---|---|---|---|---|---|---|---|
| 1777713303 | 21.67° C | 42% | 1024.9 hPa | 0 mm | - | - | - |
| 1777713003 | 21.11° C | 42% | 1025.1 hPa | 0 mm | - | - | - |
| 1777712703 | 21.11° C | 42% | 1025 hPa | 0 mm | - | - | - |
| 1777712403 | 20.56° C | 43% | 1025.1 hPa | 0 mm | - | - | - |
| 1777712103 | 20.56° C | 43% | 1025.1 hPa | 0 mm | - | - | - |
| 1777711803 | 20.56° C | 44% | 1025.1 hPa | 0 mm | - | - | - |
| 1777711503 | 20.56° C | 43% | 1025.2 hPa | 0 mm | - | - | - |
| 1777711203 | 20.56° C | 45% | 1025.2 hPa | 0 mm | - | - | - |
| 1777710903 | 20.56° C | 42% | 1025.2 hPa | 0 mm | - | - | - |
| 1777710603 | 20° C | 45% | 1025.2 hPa | 0 mm | - | - | - |
| 1777710303 | 20° C | 45% | 1025.2 hPa | 0 mm | - | - | - |
| 1777710003 | 19.44° C | 45% | 1025.1 hPa | 0 mm | - | - | - |
| 1777709703 | 19.44° C | 47% | 1025.2 hPa | 0 mm | - | - | - |
| 1777709403 | 19.44° C | 47% | 1025.3 hPa | 0 mm | - | - | - |
| 1777709103 | 18.89° C | 48% | 1025.4 hPa | 0 mm | - | - | - |
| 1777708803 | 18.89° C | 47% | 1025.5 hPa | 0 mm | - | - | - |
| 1777708503 | 18.33° C | 47% | 1025.4 hPa | 0 mm | - | - | - |
| 1777708203 | 18.33° C | 47% | 1025.5 hPa | 0 mm | - | - | - |
| 1777707903 | 17.78° C | 48% | 1025.3 hPa | 0 mm | - | - | - |
| 1777707603 | 17.78° C | 49% | 1025.5 hPa | 0 mm | - | - | - |
| 1777707303 | 17.78° C | 49% | 1025.5 hPa | 0 mm | - | - | - |
| 1777707003 | 17.22° C | 50% | 1025.5 hPa | 0 mm | - | - | - |
| 1777706703 | 17.22° C | 50% | 1025.4 hPa | 0 mm | - | - | - |
| 1777706403 | 16.67° C | 50% | 1025.5 hPa | 0 mm | - | - | - |
| 1777706103 | 16.67° C | 50% | 1025.4 hPa | 0 mm | - | - | - |
* Rain latest hour (hover to see other rain measurements)
** Current wind speed in m/s (hover to see current wind gust speed)